Regional Weather Roundup
Issued by NWS

Home | Current Version | Previous Version | Graphics & Text | Print | Product List | Glossary On
Versions: 1 2 3 4 5 6 7 8 9 10 11 12 13 14 15 16 17 18 19 20 21 22 23 24 25 26 27 28 29 30 31 32 33 34 35 36 37 38 39 40 41 42 43 44 45 46 47 48 49 50
000
ASUS43 KLMK 250402
RWRKY
KENTUCKY REGIONAL WEATHER ROUNDUP
NATIONAL WEATHER SERVICE LOUISVILLE KY
1200 AM EDT THU MAY 25 2017

NOTE "FAIR" INDICATES FEW OR NO CLOUDS BELOW 12,000 FEET
WITH NO SIGNIFICANT WEATHER AND/OR OBSTRUCTIONS TO VISIBILITY.

KYZ001>023-026-027-061>063-070>075-250500-
WESTERN AND SOUTH CENTRAL KENTUCKY

CITY           SKY/WX    TMP DP  RH WIND       PRES   REMARKS
PADUCAH        CLEAR     56  49  77 W6        29.58R
HENDERSON      LGT RAIN  57  55  93 W8        29.54S
OWENSBORO      CLOUDY    58  55  90 W10       29.52S
HOPKINSVILLE   CLOUDY    56  56 100 SW8       29.58R
BOWLING GREEN  CLOUDY    57  54  89 SW7       29.55R
GLASGOW        NOT AVBL
$$

KYZ024-025-028>034-038-045-046-053-250500-
NORTH CENTRAL KENTUCKY

CITY           SKY/WX    TMP DP  RH WIND       PRES   REMARKS
LOUISVILLE/SDF CLOUDY    58  56  93 SW8       29.47R
LOUISVILLE/LOU CLOUDY    58  57  97 SW7       29.47R
FORT KNOX      CLOUDY    56  56  99 W8        29.47R
$$

KYZ035>037-039>044-047>052-055>060-089>105-250500-
NORTHEAST KENTUCKY

CITY           SKY/WX    TMP DP  RH WIND       PRES   REMARKS
LEXINGTON      CLOUDY    58  55  90 SW12      29.46S
COVINGTON      CLOUDY    59  58  96 W6        29.39R
FRANKFORT      CLOUDY    59  54  83 SW10      29.44R
$$

KYZ054-064>069-076>088-106>120-250500-
SOUTHEAST KENTUCKY

CITY           SKY/WX    TMP DP  RH WIND       PRES   REMARKS
JACKSON        CLOUDY    58  52  80 VRB5      29.49R
LONDON         CLOUDY    56  51  84 SW13      29.53R
SOMERSET       NOT AVBL
MIDDLESBORO    MOCLDY    58  49  74 CALM      29.55S
MONTICELLO     CLOUDY    56  51  84 W21       29.56S
$$




USA.gov is the U.S. government's official web portal to all federal, state and local government web resources and services.